User: anonymous   Login
Location: Wildlife_Club
(35.6000°N, 81.4330°W)
Time: 10:12:57
(UTC-04:00)
Language:

A-11 Canister half - Orbit

View from above orbital plane
View from above orbital plane
View from above satellite
View from above satellite

Ground track
Ground track

The orbit data is extracted from the following two-line orbital elements,

1    53U 60009E   19176.31314273 -.00000166 +00000-0 -78806-3 0  9998
2    53 047.2765 283.4153 0098854 103.9098 257.2709 12.17228577624940
Epoch (UTC): 25 June 2019 07:30:55
Eccentricity: 0.0098854
inclination: 47.2765°
perigee height: 1526 km
apogee height: 1683 km
right ascension of ascending node: 283.4153°
argument of perigee: 103.9098°
revolutions per day: 12.17228577
mean anomaly at epoch: 257.2709°
orbit number at epoch: 62494

The dashed part of the orbit path shows where the satellite is in the earth's shadow,  

DLR